Penn Yan, NY

10:45 PM EDT on April 30, 2017 (GMT -0400)
Penn Yan

Weather History for KPEO - March, 2013

Change the Weather History Date:

Friday, March 22, 2013

  Actual Average (KITH) Record (KITH)
Temperature  
Mean Temperature 28 °F -  
Max Temperature 32 °F 42 °F 82 °F (1938)
Min Temperature 25 °F 25 °F 7 °F (1956)
Degree Days  
Heating Degree Days 36    
Moisture  
Dew Point 21 °F    
Average Humidity 72    
Maximum Humidity 86    
Minimum Humidity 61    
Precipitation  
Precipitation 0.00 in - - ()
Sea Level Pressure  
Sea Level Pressure 29.80 in    
Wind  
Wind Speed 12 mph (West)    
Max Wind Speed 20 mph    
Max Gust Speed 29 mph    
Visibility 9 miles    
Events Snow    
Averages and records for this station are not official NWS values.
T = Trace of Precipitation, MM = Missing Value Source: NWS Daily Summary

Daily Weather History Graph

Daily Weather History Graph

Search for Another Location

Airport or City:

Trip Planner

Search our weather history database for the weather conditions in past years. The results will help you decide how hot, cold, wet, or windy it might be!

Date:

Astronomy

Mar. 22, 2013 Rise Set
Actual Time 7:07 AM EDT 7:23 PM EDT
Civil Twilight 6:39 AM EDT 7:51 PM EDT
Nautical Twilight 6:06 AM EDT 8:24 PM EDT
Astronomical Twilight 5:32 AM EDT 8:58 PM EDT
Moon 2:42 PM EDT (3/22) 4:12 AM EDT (3/22)
Length of Visible Light 13h 11m
Length of Day
12h 15m
Waxing Gibbous, 77% of the Moon is Illuminated
Mar 22
Waxing Gibbous
Mar 27
Full
Apr 3
Last Quarter
Apr 10
New
Apr 18
First Quarter

Hourly Weather History & Observations

Time (EDT) Temp. Windchill Dew Point Humidity Pressure Visibility Wind Dir Wind Speed Gust Speed Precip Events Conditions
12:02 AM 26.6 °F 17.5 °F 23.0 °F 86% 29.70 in 5.0 mi WSW 9.2 mph - 0.00 in Snow Light Snow
12:53 AM 26.1 °F 16.8 °F 21.9 °F 84% 29.74 in 3.0 mi West 9.2 mph - 0.00 in Snow Light Snow
1:07 AM 26.6 °F 17.5 °F 21.2 °F 80% 29.70 in 3.0 mi West 9.2 mph - 0.00 in Snow Light Snow
1:30 AM 26.6 °F 16.8 °F 21.2 °F 80% 29.71 in 4.0 mi West 10.4 mph - 0.00 in Snow Light Snow
1:53 AM 26.1 °F 15.0 °F 19.9 °F 78% 29.75 in 5.0 mi West 12.7 mph - 0.00 in Snow Light Snow
2:53 AM 26.1 °F 15.6 °F 19.0 °F 75% 29.75 in 10.0 mi West 11.5 mph - 0.00 in   Mostly Cloudy
3:53 AM 25.0 °F 14.8 °F 19.0 °F 78% 29.74 in 10.0 mi WSW 10.4 mph - 0.00 in   Overcast
4:53 AM 25.0 °F 15.5 °F 19.0 °F 78% 29.75 in 10.0 mi WSW 9.2 mph - N/A   Overcast
5:53 AM 25.0 °F 16.3 °F 18.0 °F 75% 29.75 in 10.0 mi WSW 8.1 mph - N/A   Overcast
6:53 AM 25.0 °F 16.3 °F 18.0 °F 75% 29.76 in 10.0 mi SW 8.1 mph - N/A   Overcast
7:53 AM 26.1 °F 16.8 °F 19.9 °F 78% 29.77 in 10.0 mi WSW 9.2 mph - 0.00 in   Overcast
8:53 AM 27.0 °F 17.3 °F 21.0 °F 78% 29.78 in 3.0 mi West 10.4 mph - 0.00 in Snow Light Snow
9:53 AM 28.9 °F 18.2 °F 19.9 °F 69% 29.78 in 10.0 mi West 13.8 mph 21.9 mph 0.00 in   Overcast
10:06 AM 30.2 °F 19.8 °F 19.4 °F 64% 29.74 in 10.0 mi West 13.8 mph 23.0 mph N/A   Overcast
10:53 AM 30.0 °F 21.7 °F 21.0 °F 69% 29.79 in 6.0 mi West 9.2 mph 17.3 mph 0.00 in Snow Light Snow
11:18 AM 30.2 °F 19.3 °F 19.4 °F 64% 29.76 in 9.0 mi West 15.0 mph 23.0 mph 0.00 in Snow Light Snow
11:32 AM 30.2 °F 18.9 °F 19.4 °F 64% 29.76 in 10.0 mi West 16.1 mph 25.3 mph 0.00 in   Overcast
11:53 AM 30.0 °F 18.7 °F 19.9 °F 66% 29.80 in 9.0 mi West 16.1 mph 26.5 mph 0.00 in Snow Light Snow
12:16 PM 30.2 °F 19.8 °F 21.2 °F 69% 29.77 in 9.0 mi West 13.8 mph 27.6 mph 0.00 in Snow Light Snow
12:53 PM 30.9 °F 20.2 °F 21.0 °F 67% 29.81 in 9.0 mi WSW 15.0 mph 23.0 mph 0.00 in Snow Light Snow
1:29 PM 30.2 °F 20.2 °F 19.4 °F 64% 29.77 in 9.0 mi West 12.7 mph 24.2 mph 0.00 in   Overcast
1:53 PM 32.0 °F 21.6 °F 19.9 °F 61% 29.81 in 10.0 mi West 15.0 mph 24.2 mph 0.00 in   Overcast
2:23 PM 30.2 °F 21.3 °F 21.2 °F 69% 29.78 in 9.0 mi West 10.4 mph 18.4 mph 0.00 in Snow Light Snow
2:53 PM 30.9 °F 21.7 °F 21.0 °F 67% 29.82 in 10.0 mi West 11.5 mph 18.4 mph 0.00 in   Overcast
3:53 PM 32.0 °F 22.5 °F 21.0 °F 64% 29.82 in 10.0 mi West 12.7 mph 19.6 mph N/A   Overcast
4:53 PM 30.9 °F 20.7 °F 21.9 °F 69% 29.84 in 10.0 mi West 13.8 mph 25.3 mph N/A   Overcast
5:53 PM 30.9 °F 19.4 °F 21.9 °F 69% 29.86 in 10.0 mi West 17.3 mph 23.0 mph N/A   Overcast
6:53 PM 30.0 °F 17.5 °F 21.9 °F 72% 29.88 in 10.0 mi West 19.6 mph 27.6 mph N/A   Overcast
7:53 PM 30.0 °F 18.3 °F 21.9 °F 72% 29.90 in 10.0 mi West 17.3 mph 25.3 mph N/A   Overcast
8:39 PM 30.2 °F 18.1 °F 21.2 °F 69% 29.87 in 10.0 mi West 18.4 mph 28.8 mph N/A   Overcast
8:53 PM 30.0 °F 17.5 °F 21.0 °F 69% 29.91 in 10.0 mi WSW 19.6 mph 26.5 mph N/A   Overcast
9:53 PM 30.0 °F 18.7 °F 21.0 °F 69% 29.90 in 10.0 mi West 16.1 mph 25.3 mph N/A   Mostly Cloudy
10:53 PM 30.0 °F 20.5 °F 21.9 °F 72% 29.91 in 10.0 mi West 11.5 mph 21.9 mph N/A   Overcast
11:53 PM 30.0 °F 19.1 °F 21.9 °F 72% 29.91 in 10.0 mi West 15.0 mph 24.2 mph N/A   Partly Cloudy